Weather Service Report


815 
ASUS43 KLSX 290607
RWRMO 

WEATHER SUMMARY FOR MISSOURI
NATIONAL WEATHER SERVICE SPRINGFIELD MO
1200 AM CST SAT NOV 29 2014

NOTE: "FAIR" INDICATES FEW OR NO CLOUDS BELOW 12,000 FEET WITH NO
       SIGNIFICANT WEATHER AND/OR OBSTRUCTIONS TO VISIBILITY.
       CURRENT SKY AND/OR WEATHER CONDITIONS ARE NOT AVAILABLE FOR
       CHILLICOTHE AND FARMINGTON.

MOZ001>031-035>038-043-044-053-054-290700-
...NORTHERN AND WESTERN MISSOURI...
  
CITY           SKY/WX    TMP DP  RH WIND       PRES   REMARKS
KANSAS CTY INT CLOUDY    53  39  59 SW16      29.71F                  
6HR MIN TEMP:  52; 6HR MAX TEMP:  54;                                

KANSAS C DTWN  CLOUDY    55  39  54 SW16      29.71F                  
6HR MIN TEMP:  54; 6HR MAX TEMP:  56;                                

LEE'S SUMMIT   CLOUDY    55  41  59 SW18G26   29.73F                  
6HR MIN TEMP:  52; 6HR MAX TEMP:  55;                                

ST JOSEPH      MOCLDY    51  38  60 SW14      29.67F                  
6HR MIN TEMP:  42; 6HR MAX TEMP:  52;                                

CHILLICOTHE      N/A     45  36  70 S6        29.71F                  
6HR MIN TEMP:  42; 6HR MAX TEMP:  50;                                

KIRKSVILLE     PTCLDY    44  36  73 S12       29.73F                  
6HR MIN TEMP:  35; 6HR MAX TEMP:  45;                                

     
$$
MOZ066>068-077>081-088>096-101>105-290700-
...SOUTHWEST MISSOURI...
  
CITY           SKY/WX    TMP DP  RH WIND       PRES   REMARKS
SPRINGFIELD    CLOUDY    47  37  68 S10       29.85F                  
6HR MIN TEMP:  46; 6HR MAX TEMP:  56;                                

JOPLIN         CLOUDY    56  46  69 S16       29.82F                  
6HR MIN TEMP:  55; 6HR MAX TEMP:  58;                                

               
$$
MOZ032>034-039>042-045>050-055>058-069>072-290700-
...CENTRAL MISSOURI...  
  
CITY           SKY/WX    TMP DP  RH WIND       PRES   REMARKS
COLUMBIA       MOCLDY    47  36  65 S12       29.80F                  
6HR MIN TEMP:  47; 6HR MAX TEMP:  51;                                

JEFFERSON CITY MOCLDY    48  35  60 SE6       29.82F                  
6HR MIN TEMP:  47; 6HR MAX TEMP:  52;                                

ROLLA          MOCLDY    46  35  65 S16       29.83F                  
6HR MIN TEMP:  45; 6HR MAX TEMP:  49;                                

SEDALIA        CLOUDY    54  41  61 SW20      29.76F                  
6HR MIN TEMP:  50; 6HR MAX TEMP:  54;                                

WHITEMAN AFB   CLOUDY    53  41  65 SW21G26   29.74F                  
WARRENSBURG    CLOUDY    50  39  66 S14       29.76S                  
OSAGE BEACH    MOCLDY    46  34  61 S7        29.83F                  
               
$$
MOZ051-052-059>065-290700-
...EAST CENTRAL MISSOURI...
  
CITY           SKY/WX    TMP DP  RH WIND       PRES   REMARKS
ST LOUIS INTL  MOCLDY    44  34  67 S8        29.87F                  
6HR MIN TEMP:  44; 6HR MAX TEMP:  48;                                

SPIRIT OF STL  MOCLDY    42  33  70 S5        29.86F                  
6HR MIN TEMP:  38; 6HR MAX TEMP:  49;                                

ST CHARLES     PTCLDY    37  33  85 SE7       29.86F                  
6HR MIN TEMP:  37; 6HR MAX TEMP:  42;                                

                   
$$
MOZ072>076-082>087-097>100-106>115-290700-
...SOUTH CENTRAL AND SOUTHEAST MISSOURI...
  
CITY           SKY/WX    TMP DP  RH WIND       PRES   REMARKS
CAPE GIRARDEAU MOCLDY    43  32  65 S9        30.01S                  
6HR MIN TEMP:  42; 6HR MAX TEMP:  46;                                

FARMINGTON     CLOUDY    43  34  70 SW13      29.93F                  
6HR MIN TEMP:  43; 6HR MAX TEMP:  45;                                

POPLAR BLUFF   PTCLDY    42  32  67 S8        29.99F                  
6HR MIN TEMP:  40; 6HR MAX TEMP:  45;                                

WEST PLAINS    CLEAR     43  34  70 S7        29.92F                  
6HR MIN TEMP:  43; 6HR MAX TEMP:  48;                                

                                       
$$

Return to Home page


Western Regional Climate Center, wrcc@dri.edu